Weather History for KBXK - October, 2011

Change the Weather History Date:

Wednesday, October 19, 2011

  Actual Average (KGYR) Record (KGYR)
Temperature  
Mean Temperature 76 °F -  
Max Temperature 93 °F 84 °F 100 °F (2003)
Min Temperature 59 °F 57 °F 51 °F (1998)
Cooling Degree Days 11    
Growing Degree Days 26 (Base 50)    
Moisture  
Dew Point 25 °F    
Average Humidity 14    
Maximum Humidity 26    
Minimum Humidity 9    
Precipitation  
Precipitation 0.00 in - - ()
Sea Level Pressure  
Sea Level Pressure 29.84 in    
Wind  
Wind Speed 9 mph (NNE)    
Max Wind Speed 21 mph    
Max Gust Speed 24 mph    
Visibility 10 miles    
Events      
Averages and records for this station are not official NWS values.
T = Trace of Precipitation, MM = Missing Value Source: NWS Daily Summary

Daily Weather History Graph

Daily Weather History Graph

Search for Another Location

Airport or City:

Trip Planner

Search our weather history database for the weather conditions in past years. The results will help you decide how hot, cold, wet, or windy it might be!

Date:

Astronomy

Oct. 19, 2011 Rise Set
Actual Time 6:38 AM MST 5:52 PM MST
Civil Twilight 6:13 AM MST 6:17 PM MST
Nautical Twilight 5:44 AM MST 6:46 PM MST
Astronomical Twilight 5:15 AM MST 7:15 PM MST
Moon 11:49 PM MST (10/19) 1:03 PM MST (10/19)
Length of Visible Light 12h 04m
Length of Day
11h 14m
Waning Gibbous, 54% of the Moon is Illuminated
Oct 19
Waning Gibbous
Oct 19
Last Quarter
Oct 26
New
Nov 2
First Quarter
Nov 10
Full

Hourly Weather History & Observations

Time (MST) Temp. Dew Point Humidity Pressure Visibility Wind Dir Wind Speed Gust Speed Precip Events Conditions
1:35 AM 68.0 °F 24.8 °F 20% 29.88 in 10.0 mi NNW 8.1 mph - N/A   Clear
1:55 AM 66.2 °F 24.8 °F 21% 29.87 in 10.0 mi North 9.2 mph - N/A   Clear
2:15 AM 66.2 °F 23.0 °F 19% 29.88 in 10.0 mi NNW 8.1 mph - N/A   Clear
2:55 AM 64.4 °F 23.0 °F 21% 29.88 in 10.0 mi North 5.8 mph - N/A   Unknown
3:15 AM 64.4 °F 23.0 °F 21% 29.87 in 10.0 mi NNW 8.1 mph - N/A   Unknown
5:35 AM 59.0 °F 21.2 °F 23% 29.89 in 10.0 mi NNW 6.9 mph - N/A   Unknown
5:55 AM 59.0 °F 23.0 °F 25% 29.89 in 10.0 mi North 6.9 mph - N/A   Unknown
6:35 AM 59.0 °F 23.0 °F 25% 29.88 in 10.0 mi NW 4.6 mph - N/A   Clear
7:55 AM 64.4 °F 23.0 °F 21% 29.91 in 10.0 mi WNW 4.6 mph - N/A   Clear
8:15 AM 68.0 °F 23.0 °F 18% 29.91 in 10.0 mi NNW 3.5 mph - N/A   Clear
8:35 AM 73.4 °F 28.4 °F 19% 29.91 in 10.0 mi SW 3.5 mph - N/A   Clear
9:35 AM 84.2 °F 23.0 °F 11% 29.91 in 10.0 mi ENE 15.0 mph - N/A   Clear
9:55 AM 84.2 °F 24.8 °F 11% 29.91 in 10.0 mi ENE 15.0 mph 21.9 mph N/A   Clear
10:15 AM 86.0 °F 24.8 °F 11% 29.90 in 10.0 mi East 19.6 mph 23.0 mph N/A   Clear
10:35 AM 86.0 °F 24.8 °F 11% 29.89 in 10.0 mi East 18.4 mph 24.2 mph N/A   Clear
10:55 AM 86.0 °F 26.6 °F 12% 29.89 in 10.0 mi East 20.7 mph - N/A   Clear
11:15 AM 86.0 °F 26.6 °F 12% 29.88 in 10.0 mi East 18.4 mph - N/A   Clear
11:35 AM 87.8 °F 28.4 °F 12% 29.87 in 10.0 mi East 18.4 mph 21.9 mph N/A   Clear
11:55 AM 89.6 °F 28.4 °F 11% 29.87 in 10.0 mi East 15.0 mph 20.7 mph N/A   Clear
12:15 PM 89.6 °F 26.6 °F 10% 29.86 in 10.0 mi East 16.1 mph - N/A   Clear
12:55 PM 91.4 °F 26.6 °F 10% 29.84 in 10.0 mi East 15.0 mph 21.9 mph N/A   Clear
1:15 PM 91.4 °F 28.4 °F 10% 29.83 in 10.0 mi East 11.5 mph - N/A   Clear
1:35 PM 91.4 °F 26.6 °F 10% 29.83 in 10.0 mi East 10.4 mph - N/A   Clear
1:55 PM 91.4 °F 26.6 °F 10% 29.82 in 10.0 mi East 9.2 mph - N/A   Clear
2:15 PM 93.2 °F 26.6 °F 9% 29.81 in 10.0 mi East 8.1 mph - N/A   Clear
2:35 PM 93.2 °F 26.6 °F 9% 29.81 in 10.0 mi East 3.5 mph - N/A   Clear
2:55 PM 93.2 °F 26.6 °F 9% 29.80 in 10.0 mi SSE 5.8 mph - N/A   Clear
3:15 PM 93.2 °F 28.4 °F 10% 29.80 in 10.0 mi Calm Calm - N/A   Clear
3:35 PM 93.2 °F 26.6 °F 9% 29.80 in 10.0 mi South 5.8 mph - N/A   Clear
3:55 PM 93.2 °F 28.4 °F 10% 29.79 in 10.0 mi South 4.6 mph - N/A   Clear
4:15 PM 93.2 °F 28.4 °F 10% 29.79 in 10.0 mi SSE 5.8 mph - N/A   Clear
4:35 PM 93.2 °F 26.6 °F 9% 29.78 in 10.0 mi Calm Calm - N/A   Clear
4:55 PM 93.2 °F 26.6 °F 9% 29.78 in 10.0 mi WSW 4.6 mph - N/A   Clear
5:15 PM 91.4 °F 30.2 °F 11% 29.78 in 10.0 mi SW 4.6 mph - N/A   Clear
5:35 PM 89.6 °F 30.2 °F 12% 29.78 in 10.0 mi WNW 4.6 mph - N/A   Clear
5:55 PM 89.6 °F 26.6 °F 10% 29.79 in 10.0 mi West 3.5 mph - N/A   Clear
6:15 PM 86.0 °F 26.6 °F 12% 29.79 in 10.0 mi West 3.5 mph - N/A   Clear
6:35 PM 82.4 °F 24.8 °F 12% 29.79 in 10.0 mi West 5.8 mph - N/A   Clear
6:55 PM 82.4 °F 24.8 °F 12% 29.79 in 10.0 mi WNW 6.9 mph - N/A   Clear
7:15 PM 78.8 °F 26.6 °F 15% 29.80 in 2.5 mi NNW 5.8 mph - N/A   Clear
7:35 PM 77.0 °F 23.0 °F 13% 29.80 in 10.0 mi NNW 4.6 mph - N/A   Clear
7:55 PM 75.2 °F 23.0 °F 14% 29.81 in 10.0 mi North 8.1 mph - N/A   Clear
8:15 PM 75.2 °F 21.2 °F 13% 29.81 in 10.0 mi North 10.4 mph - N/A   Unknown
8:35 PM 73.4 °F 19.4 °F 13% 29.82 in 10.0 mi North 6.9 mph - N/A   Unknown
8:55 PM 73.4 °F 19.4 °F 13% 29.82 in 10.0 mi North 8.1 mph - N/A   Clear
9:15 PM 73.4 °F 19.4 °F 13% 29.82 in 10.0 mi North 8.1 mph - N/A   Clear
9:35 PM 73.4 °F 19.4 °F 13% 29.83 in 10.0 mi North 6.9 mph - N/A   Clear
9:55 PM 71.6 °F 19.4 °F 14% 29.83 in 10.0 mi North 6.9 mph - N/A   Clear
10:15 PM 71.6 °F 19.4 °F 14% 29.83 in 10.0 mi North 5.8 mph - N/A   Clear
10:35 PM 68.0 °F 32.0 °F 26% 29.84 in 10.0 mi ESE 6.9 mph - N/A   Unknown
10:55 PM 69.8 °F 28.4 °F 21% 29.84 in 10.0 mi Calm Calm - N/A   Unknown
11:15 PM 66.2 °F 26.6 °F 23% 29.84 in 10.0 mi NNW 3.5 mph - N/A   Clear
11:35 PM 68.0 °F 23.0 °F 18% 29.84 in 10.0 mi NE 4.6 mph - N/A   Clear
11:55 PM 68.0 °F 23.0 °F 18% 29.84 in 10.0 mi North 6.9 mph - N/A   Clear